When you browse on this site, cookies collect data to enhance your experience and personalize the content and advertising you see.
Visit our Privacy Policy to learn more. By continuing to use the site, you agree to this use of cookies and data.
  • In Schweiz
  • Länderverzeichnis
  • Für 7 Tage
  • Wassertemperatur
  • Satellitenkarten
  • Wetterkarte
  • Widgets
  • user-avatar
    Anmelden

    Stündliche Wetter Liberpol

    Heute, 24 Januar, Donnerstag

    Zeit Temperatur Niederschläge Wind Luftdruck Luftfeuchtigkeit
    00:00 -12°C° 0 mm 2 m/S 743 mmHg 94%
    01:00 -12°C° 0 mm 2 m/S 743 mmHg 94%
    02:00 -12°C° 0 mm 2 m/S 743 mmHg 94%
    03:00 -12°C° 0 mm 2 m/S 743 mmHg 95%
    04:00 -13°C° 0 mm 2 m/S 744 mmHg 95%
    05:00 -13°C° 0 mm 2 m/S 744 mmHg 96%
    06:00 -14°C° 0 mm 3 m/S 744 mmHg 96%
    07:00 -14°C° 0 mm 3 m/S 744 mmHg 95%
    08:00 -14°C° 0 mm 3 m/S 744 mmHg 95%
    09:00 -13°C° 0 mm 3 m/S 745 mmHg 94%
    10:00 -13°C° 0 mm 3 m/S 745 mmHg 93%
    11:00 -12°C° 0 mm 3 m/S 745 mmHg 92%
    12:00 -12°C° 0 mm 3 m/S 746 mmHg 91%
    13:00 -10°C° 0 mm 3 m/S 746 mmHg 90%
    14:00 -10°C° 0 mm 3 m/S 746 mmHg 89%
    15:00 -10°C° 0 mm 3 m/S 746 mmHg 90%
    16:00 -12°C° 0 mm 3 m/S 746 mmHg 91%
    17:00 -13°C° 0 mm 3 m/S 746 mmHg 92%
    18:00 -14°C° 0 mm 4 m/S 746 mmHg 93%
    19:00 -14°C° 0 mm 4 m/S 747 mmHg 93%
    20:00 -15°C° 0 mm 4 m/S 747 mmHg 94%
    21:00 -15°C° 0 mm 4 m/S 747 mmHg 93%
    22:00 -15°C° 0 mm 4 m/S 747 mmHg 93%
    23:00 -15°C° 0 mm 4 m/S 748 mmHg 93%

    Morgen, 25 Januar, Freitag

    Zeit Temperatur Niederschläge Wind Luftdruck Luftfeuchtigkeit
    00:00 -15°C° 0 mm 4 m/S 747 mmHg 93%
    01:00 -16°C° 0 mm 4 m/S 747 mmHg 93%
    02:00 -16°C° 0 mm 4 m/S 747 mmHg 93%
    03:00 -16°C° 0 mm 4 m/S 747 mmHg 93%
    04:00 -15°C° 0 mm 4 m/S 747 mmHg 92%
    05:00 -15°C° 0 mm 5 m/S 747 mmHg 92%
    06:00 -15°C° 0 mm 5 m/S 747 mmHg 91%
    07:00 -15°C° 0 mm 5 m/S 747 mmHg 91%
    08:00 -15°C° 0 mm 5 m/S 747 mmHg 91%
    09:00 -14°C° 0 mm 5 m/S 747 mmHg 90%
    10:00 -14°C° 0 mm 5 m/S 747 mmHg 89%
    11:00 -14°C° 0 mm 5 m/S 747 mmHg 88%
    12:00 -13°C° 0.1 mm 5 m/S 746 mmHg 88%
    13:00 -13°C° 0.1 mm 5 m/S 746 mmHg 87%
    14:00 -13°C° 0.1 mm 5 m/S 746 mmHg 87%
    15:00 -13°C° 0.3 mm 5 m/S 746 mmHg 89%
    16:00 -13°C° 0.3 mm 5 m/S 746 mmHg 90%
    17:00 -12°C° 0.3 mm 4 m/S 745 mmHg 92%
    18:00 -12°C° 0.4 mm 4 m/S 745 mmHg 92%
    19:00 -11°C° 0.4 mm 4 m/S 745 mmHg 93%
    20:00 -10°C° 0.4 mm 3 m/S 745 mmHg 93%
    21:00 -10°C° 0.6 mm 3 m/S 745 mmHg 94%
    22:00 -10°C° 0.6 mm 3 m/S 745 mmHg 95%
    23:00 -9°C° 0.6 mm 2 m/S 744 mmHg 95%

    übermorgen, 26 Januar, Samstag

    Zeit Temperatur Niederschläge Wind Luftdruck Luftfeuchtigkeit
    00:00 -9°C° 0.2 mm 2 m/S 744 mmHg 95%
    01:00 -9°C° 0.2 mm 2 m/S 744 mmHg 96%
    02:00 -8°C° 0.2 mm 1 m/S 743 mmHg 96%
    03:00 -8°C° 0.1 mm 1 m/S 743 mmHg 96%
    04:00 -9°C° 0.1 mm 2 m/S 743 mmHg 96%
    05:00 -9°C° 0.1 mm 2 m/S 742 mmHg 96%
    06:00 -9°C° 0.1 mm 2 m/S 742 mmHg 96%
    07:00 -10°C° 0.1 mm 2 m/S 742 mmHg 96%
    08:00 -10°C° 0.1 mm 2 m/S 742 mmHg 95%
    09:00 -9°C° 0 mm 2 m/S 742 mmHg 94%
    10:00 -9°C° 0 mm 3 m/S 742 mmHg 92%
    11:00 -9°C° 0 mm 3 m/S 742 mmHg 91%
    12:00 -8°C° 0 mm 3 m/S 741 mmHg 90%
    13:00 -7°C° 0 mm 3 m/S 741 mmHg 89%
    14:00 -7°C° 0 mm 3 m/S 740 mmHg 88%
    15:00 -7°C° 0.3 mm 3 m/S 739 mmHg 90%
    16:00 -7°C° 0.3 mm 3 m/S 739 mmHg 93%
    17:00 -7°C° 0.3 mm 2 m/S 738 mmHg 96%
    18:00 -7°C° 0.6 mm 2 m/S 738 mmHg 96%
    19:00 -7°C° 0.6 mm 2 m/S 738 mmHg 96%
    20:00 -7°C° 0.6 mm 2 m/S 737 mmHg 96%
    21:00 -7°C° 0.2 mm 2 m/S 737 mmHg 96%
    22:00 -6°C° 0.2 mm 1 m/S 737 mmHg 96%
    23:00 -6°C° 0.2 mm 1 m/S 736 mmHg 96%

    27 Januar, Sonntag

    Zeit Temperatur Niederschläge Wind Luftdruck Luftfeuchtigkeit
    00:00 -7°C° 0 mm 1 m/S 736 mmHg 97%
    01:00 -8°C° 0 mm 1 m/S 737 mmHg 97%
    02:00 -8°C° 0 mm 1 m/S 737 mmHg 97%
    03:00 -9°C° 0 mm 1 m/S 737 mmHg 97%
    04:00 -9°C° 0 mm 1 m/S 737 mmHg 97%
    05:00 -10°C° 0 mm 2 m/S 737 mmHg 97%
    06:00 -12°C° 0 mm 2 m/S 738 mmHg 97%
    07:00 -10°C° 0 mm 1 m/S 738 mmHg 97%
    08:00 -11°C° 0 mm 1 m/S 739 mmHg 97%
    09:00 -10°C° 0 mm 1 m/S 739 mmHg 96%
    10:00 -9°C° 0 mm 1 m/S 739 mmHg 95%
    11:00 -8°C° 0 mm 1 m/S 739 mmHg 94%
    12:00 -8°C° 0 mm 2 m/S 739 mmHg 93%
    13:00 -7°C° 0 mm 2 m/S 739 mmHg 93%
    14:00 -6°C° 0 mm 2 m/S 738 mmHg 93%
    15:00 -8°C° 0 mm 3 m/S 738 mmHg 93%
    16:00 -8°C° 0 mm 3 m/S 738 mmHg 94%
    17:00 -8°C° 0 mm 3 m/S 738 mmHg 95%
    18:00 -9°C° 0.2 mm 4 m/S 738 mmHg 95%
    19:00 -8°C° 0.2 mm 4 m/S 738 mmHg 95%
    20:00 -8°C° 0.2 mm 5 m/S 737 mmHg 95%
    21:00 -7°C° 0.2 mm 5 m/S 737 mmHg 95%
    22:00 -7°C° 0.2 mm 5 m/S 737 mmHg 95%
    23:00 -6°C° 0.2 mm 5 m/S 737 mmHg 95%

    28 Januar, Montag

    Zeit Temperatur Niederschläge Wind Luftdruck Luftfeuchtigkeit
    00:00 -6°C° 0 mm 5 m/S 737 mmHg 95%
    01:00 -4°C° 0 mm 4 m/S 736 mmHg 95%
    02:00 -3°C° 0 mm 4 m/S 736 mmHg 95%
    03:00 -4°C° 0 mm 4 m/S 736 mmHg 94%
    04:00 -4°C° 0 mm 4 m/S 735 mmHg 94%
    05:00 -5°C° 0 mm 4 m/S 735 mmHg 94%
    06:00 -5°C° 0 mm 4 m/S 735 mmHg 94%
    07:00 -6°C° 0 mm 5 m/S 734 mmHg 94%
    08:00 -6°C° 0 mm 5 m/S 734 mmHg 94%
    09:00 -5°C° 0 mm 5 m/S 734 mmHg 93%
    10:00 -5°C° 0 mm 5 m/S 734 mmHg 92%
    11:00 -4°C° 0 mm 5 m/S 735 mmHg 92%
    12:00 -4°C° 0 mm 5 m/S 734 mmHg 92%
    13:00 -2°C° 0 mm 5 m/S 734 mmHg 92%
    14:00 -2°C° 0 mm 5 m/S 734 mmHg 92%
    15:00 -2°C° 0 mm 4 m/S 734 mmHg 92%
    16:00 -3°C° 0 mm 4 m/S 735 mmHg 92%
    17:00 -4°C° 0 mm 4 m/S 735 mmHg 93%
    18:00 -4°C° 0 mm 4 m/S 735 mmHg 93%
    19:00 -4°C° 0 mm 4 m/S 735 mmHg 92%
    20:00 -5°C° 0 mm 4 m/S 735 mmHg 92%
    21:00 -5°C° 0 mm 4 m/S 735 mmHg 92%
    22:00 -5°C° 0 mm 4 m/S 735 mmHg 92%
    23:00 -7°C° 0 mm 4 m/S 736 mmHg 92%

    29 Januar, Dienstag

    Zeit Temperatur Niederschläge Wind Luftdruck Luftfeuchtigkeit
    00:00 -7°C° 0 mm 4 m/S 736 mmHg 92%
    01:00 -6°C° 0 mm 3 m/S 736 mmHg 93%
    02:00 -6°C° 0 mm 3 m/S 736 mmHg 93%
    03:00 -6°C° 0 mm 3 m/S 736 mmHg 93%
    04:00 -7°C° 0 mm 3 m/S 736 mmHg 94%
    05:00 -7°C° 0 mm 3 m/S 736 mmHg 94%
    06:00 -6°C° 0 mm 3 m/S 736 mmHg 94%
    07:00 -5°C° 0 mm 2 m/S 736 mmHg 95%
    08:00 -5°C° 0 mm 2 m/S 736 mmHg 95%
    09:00 -4°C° 0.1 mm 2 m/S 736 mmHg 95%
    10:00 -3°C° 0.1 mm 2 m/S 736 mmHg 95%
    11:00 -2°C° 0.1 mm 2 m/S 737 mmHg 96%
    12:00 0°C° 0.3 mm 1 m/S 737 mmHg 96%
    13:00 0°C° 0.3 mm 1 m/S 737 mmHg 97%
    14:00 +1°C° 0.3 mm 1 m/S 737 mmHg 97%
    15:00 0°C° 0.2 mm 1 m/S 737 mmHg 97%
    16:00 0°C° 0.2 mm 1 m/S 737 mmHg 97%
    17:00 0°C° 0.2 mm 1 m/S 737 mmHg 97%
    18:00 0°C° 0 mm 1 m/S 737 mmHg 97%
    19:00 -1°C° 0 mm 1 m/S 737 mmHg 97%
    20:00 -1°C° 0 mm 1 m/S 737 mmHg 97%
    21:00 -1°C° 0 mm 1 m/S 738 mmHg 97%
    22:00 -1°C° 0 mm 1 m/S 738 mmHg 97%
    23:00 -1°C° 0 mm 1 m/S 738 mmHg 97%
    Mehr zeigen